Find EO-1

NORAD ID: 26619 Int'l Des: 2000-075 Owner: GSFC Country: US operational
LEOCIRCULARRETROGRADESSO

Live Position

Loading 3D Globe...

About EO-1

Description loading...

Upcoming Passes

Passes for default location (London). Set your location on the main map for personalized predictions.

Altitude History

Loading altitude history...

Two-Line Element Set

1 26619U 00075A 26110.37617066 .00000475 00000-0 89219-4 0 9991
2 26619 98.1126 67.6186 0008090 318.2476 41.8112 14.69120126638102
Epoch: Apr 20, 2026 • Age: 17 hours

Current Status

Altitude 678.1 km
Velocity 7.52 km/s
Sub-Earth Point 68.95°N, 172.15°E
Launch Date Nov 21, 2000
Age 25.4 years
Type other

Technical Details

Classification Payload
Mass 588.00 kg
Dry Mass 566.00 kg
Total Mass 588.00 kg
Length 0.70 m
Diameter 1.30 m
Span 5.00 m
Shape Hex Cyl + Pan
Manufacturer SWALES
Bus Type ATK-A200
Phase Status In Orbit
Owner/State GSFC/US

Most Searched